This demonstration page uses our WeatherBlox Daily Observations layout. Learn more.

Left ArrowRight Arrow

Hourly Observations for October 14, 2021

Temp ( °F °C ) Dew Point ( °F °C ) Humidity (%) Winds ( mph kmh ) Pressure ( in mb ) Visibility ( mi km ) Precip ( " mm )
12:56 am 00:56 Clear 42 5.6 30 -1.1 62 62 WNW 6 9 29.88 1012 10 16 0.00 0.00
1:56 am 01:56 Clear 42 5.6 30 -1.1 62 62 W 5 7 29.90 1013 10 16 0.00 0.00
2:56 am 02:56 Clear 41 5 30 -1.1 65 65 Calm 29.91 1013 10 16 0.00 0.00
3:56 am 03:56 Clear 38 3.3 32 0 79 79 SSW 6 9 29.92 1013 10 16 0.00 0.00
4:56 am 04:56 Clear 38 3.3 32 0 79 79 SW 5 7 29.95 1014 10 16 0.00 0.00
5:56 am 05:56 Clear 36 2.2 31 -0.6 82 82 WSW 6 9 29.96 1015 10 16 0.00 0.00
6:56 am 06:56 Clear 34 1.1 30 -1.1 85 85 NW 6 9 29.97 1015 10 16 0.00 0.00
7:56 am 07:56 Sunny 32 0 29 -1.7 88 88 WNW 7 11 30.00 1016 10 16 0.00 0.00
8:56 am 08:56 Sunny 37 2.8 31 -0.6 79 79 WNW 6 9 30.01 1016 10 16 0.00 0.00
9:56 am 09:56 Sunny 40 4.4 33 0.6 77 77 NNW 5 7 30.01 1016 10 16 0.00 0.00
10:56 am 10:56 Mostly Cloudy 48 8.9 34 1.1 58 58 N 8 13 30.01 1016 10 16 0.00 0.00
11:56 am 11:56 Cloudy 50 10 34 1.1 54 54 N 5 7 30.01 1016 10 16 0.00 0.00
12:56 pm 12:56 Cloudy 52 11.1 29 -1.7 41 41 Calm 30.01 1016 10 16 0.00 0.00
1:56 pm 13:56 Cloudy 53 11.7 31 -0.6 43 43 NNE 6 9 29.99 1016 10 16 0.00 0.00
2:56 pm 14:56 Cloudy 53 11.7 30 -1.1 41 41 NW 6 9 29.97 1015 10 16 0.00 0.00
3:56 pm 15:56 Cloudy 52 11.1 31 -0.6 45 45 NW 9 15 29.97 1015 10 16 0.00 0.00
4:56 pm 16:56 Cloudy 51 10.6 34 1.1 52 52 NNW 10 17 29.98 1015 10 16 0.00 0.00
5:56 pm 17:56 Mostly Cloudy 51 10.6 33 0.6 50 50 NNW 9 15 30.01 1016 10 16 0.00 0.00
6:56 pm 18:56 Cloudy 49 9.4 36 2.2 61 61 NNW 12 19 30.04 1017 10 16 0.00 0.00
7:56 pm 19:56 Cloudy with Light Rain 45 7.2 40 4.4 83 83 NNW 13 20 30.06 1018 10 16 0.00 0.00
8:56 pm 20:56 Cloudy 44 6.7 41 5 89 89 NNW 6 9 30.06 1018 10 16 0.00 0.00
9:56 pm 21:56 Cloudy 44 6.7 40 4.4 85 85 Calm 30.04 1017 10 16 0.00 0.00
10:56 pm 22:56 Mostly Clear 44 6.7 40 4.4 85 85 W 6 9 30.06 1018 10 16 0.00 0.00
11:56 pm 23:56 Clear 44 6.7 39 3.9 83 83 W 8 13 30.07 1018 10 16 0.00 0.00

Powered by AerisWeather